Starlink 36159

operational
NORAD ID: 67079 Int'l Des: 2025-298 Owner: SPXS Country: US Constellation: starlink
LEOCIRCULAR

About Starlink 36159

Description loading...

Live Position

Loading 3D Globe...

Upcoming Passes

Altitude History

Altitude vs Time

uPlot chart will show altitude changes over time

Two-Line Element Set

1 67079C 25298E 25349.42409722 -.00873170 00000+0 -13337-2 0 3493
2 67079 70.0022 243.0084 0005557 274.4917 193.8587 16.05036534 14
Epoch: Dec 15, 2025 • Age: 46 hours

Current Status

Altitude 281.9 km
Velocity 7.74 km/s
Sub-Earth Point 67.34°N, 116.86°W
Launch Date Dec 14, 2025
Age 2 days
Type internet

Technical Details

Classification Payload
Mass 575.00 kg
Dry Mass 530.00 kg
Total Mass 575.00 kg
Length 0.30 m
Diameter 4.10 m
Span 29.00 m
Shape Box + pan
Manufacturer SPXS
Bus Type Starlink V2MO
Phase Status In Orbit
Owner/State SPXS/US

Large Constellations

Loading constellations...